SCP
0 0 0 0 0 0 0 0 0 0 0 0 0 0 0 0 0 0 0 0 0 0 0 0 0 0 0 0 0 0 0 0 0 0 0 0 0 0 0 0 0 0 0
0 0 0 0 0 0 0 0 0 0 0 0 0 0 0 0 0 0 0 0 0 0 0 0 0 0 0 0 0 0 0 0 0 0 0 0 0 0 0 0 0 0 0
0 0 0 0 0 0 0 0 0 0 0 0 0 0 0 0 0 0 0 0 0 0 0 0 0 0 0 0 0 0 0 0 0 0 0 0 0 0 0 0 0 0 0
0 0 0 0 0 0 0 0 0 0 0 0 0 0 0 0 0 0 0 0 0 0 0 0 0 0 0 0 0 0 0 0 0 0 0 0 0 0 0 0 0 0 0
0 0 0 0 0 0 0 0 0 0 0 0 0 0 0 0 0 0 0 0 0 0 0 0 0 0 0 0 0 0 0 0 0 0 0 0 0 0 0 0 0 0 0
0 0 0 0 0 0 0 0 0 0 0 0 0 0 0 0 0 0 0 0 0 0 0 0 0 0 0 0 0 0 0 0 0 0 0 0 0 0 0 0 0 0 0
0 0 0 0 0 0 0 0 0 0 0 0 0 0 0 0 0 0 0 0 0 0 0 0 0 0 0 0 0 0 0 0 0 0 0 0 0 0 0 0 0 0 0
0 0 0 0 0 0 0 0 0 0 0 0 0 0 0 0 0 0 0 0 0 0 0 0 0 0 0 0 0 0 0 0 0 0 0 0 0 0 0 0 0 0 0
0 0 0 0 0 0 0 0 0 0 0 0 0 0 0 0 0 0 0 0 0 0 0 0 0 0 0 0 0 0 0 0 0 0 0 0 0 0 0 0 0 0 0
0 0 0 0 0 0 0 0 0 0 0 0 0 0 0 0 0 0 0 0 0 0 0 0 0 0 0 0 0 0 0 0 0 0 0 0 0 0 0 0 0 0 0
0 0 0 0 0 0 0 0 0 0 0 0 0 0 0 0 0 0 0 0 0 0 0 0 0 0 0 0 0 0 0 0 0 0 0 0 0 0 0 0 0 0 0
0 0 0 0 0 0 0 0 0 0 0 0 0 0 0 0 0 0 0 0 0 0 0 0 0 0 0 0 0 0 0 0 0 0 0 0 0 0 0 0 0 0 0
0 0 0 0 0 0 0 0 0 0 0 0 0 0 0 0 0 0 0 0 0 0 0 0 0 0 0 0 0 0 0 0 0 0 0 0 0 0 0 0 0 0 0
0 0 0 0 0 0 0 0 0 0 0 0 0 0 0 0 0 0 0 0 0 0 0 0 0 0 0 0 0 0 0 0 0 0 0 0 0 0 0 0 0 0 0
0 0 0 0 0 0 0 0 0 0 0 0 0 0 0 0 0 0 0 0 0 0 0 0 0 0 0 0 0 0 0 0 0 0 0 0 0 0 0 0 0 0 0
0 0 0 0 0 0 0 0 0 0 0 0 0 0 0 0 0 0 0 0 0 0 0 0 0 0 0 0 0 0 0 0 0 0 0 0 0 0 0 0 0 0 0
0 0 0 0 0 0 0 0 0 0 0 0 0 0 0 0 0 0 0 0 0 0 0 0 0 0 0 0 0 0 0 0 0 0 0 0 0 0 0 0 0 0 0
0 0 0 0 0 0 0 0 0 0 0 0 0 0 0 0 0 0 0 0 0 0 0 0 0 0 0 0 0 0 0 0 0 0 0 0 0 0 0 0 0 0 0
0 0 0 0 0 0 0 0 0 0 0 0 0 0 0 0 0 0 0 0 0 0 0 0 0 0 0 0 0 0 0 0 0 0 0 0 0 0 0 0 0 0 0
0 0 0 0 0 0 0 0 0 0 0 0 0 0 0 0 0 0 0 0 0 0 0 0 0 0 0 0 0 0 0 0 0 0 0 0 0 0 0 0 0 0 0
0 0 0 0 0 0 0 0 0 0 0 0 0 0 0 0 0 0 0 0 0 0 0 0 0 0 0 0 0 0 0 0 0 0 0 0 0 0 0 0 0 0 0
0 0 0 0 0 0 0 0 0 0 0 0 0 0 0 0 0 0 0 0 0 0 0 0 0 0 0 0 0 0 0 0 0 0 0 0 0 0 0 0 0 0 0
0 0 0 0 0 0 0 0 0 0 0 0 0 0 0 0 0 0 0 0 0 0 0 0 0 0 0 0 0 0 0 0 0 0 0 0 0 0 0 0 0 0 0
0 0 0 0 0 0 0 0 0 0 0 0 0 0 0 0 0 0 0 0 0 0 0 0 0 0 0 0 0 0 0 0 0 0 0 0 0 0 0 0 0 0 0
0 0 0 0 0 0 0 0 0 0 0 0 0 0 0 0 0 0 0 0 0 0 0 0 0 0 0 0 0 0 0 0 0 0 0 0 0 0 0 0 0 0 0
0 0 0 0 0 0 0 0 0 0 0 0 0 0 0 0 0 0 0 0 0 0 0 0 0 0 0 0 0 0 0 0 0 0 0 0 0 0 0 0 0 0 0
Wind_Speed_500mb
25 22 19 19 19 15 10 5 8 8 13 16 16 16 21 21 22 25 40 32 25 32 30 30 32 32 30 32 32 33 33 35 36 36 37 39 40 40 41 41 43 44 46
26 30 32 28 26 19 15 11 9 8 11 18 19 18 21 23 22 27 23 28 25 27 30 27 27 29 30 31 33 32 33 32 34 35 37 37 38 39 38 40 42 44 45
36 35 37 35 30 26 21 20 19 21 17 21 25 24 23 23 25 29 28 24 19 14 24 27 26 26 28 28 31 29 30 30 31 33 35 35 35 36 38 39 41 43 44
43 42 43 40 39 35 34 32 29 30 30 32 30 29 28 28 27 28 30 27 24 19 17 22 28 27 27 27 29 28 29 29 30 31 32 33 35 37 38 39 40 41 44
53 49 50 47 48 46 43 36 37 36 36 35 35 34 35 33 31 31 30 28 25 20 12 5 9 22 27 26 27 27 26 26 28 30 31 34 35 36 37 38 40 42 43
58 59 56 52 49 52 48 40 42 43 40 40 37 39 37 35 34 34 32 33 29 23 18 13 10 9 18 24 24 23 23 24 27 28 30 32 33 34 36 38 40 41 42
61 65 66 57 60 50 56 54 53 52 50 48 49 42 35 36 36 37 35 31 27 25 24 21 17 12 6 6 18 22 22 23 23 24 26 28 31 33 35 37 38 40 43
60 68 65 68 64 62 60 67 61 62 61 59 56 48 33 33 41 38 38 32 31 29 27 24 21 16 13 10 13 18 19 19 19 20 23 26 29 31 34 36 37 39 42
64 66 63 66 75 66 63 69 74 61 68 66 63 39 23 26 47 44 42 38 35 34 31 29 26 22 20 18 16 19 18 17 19 20 23 23 26 29 31 34 36 38 41
72 70 70 63 73 63 77 72 65 79 72 72 72 73 55 34 36 33 51 47 42 38 36 36 32 28 25 23 19 17 18 18 17 17 17 19 22 26 29 32 35 37 40
75 75 74 71 73 69 80 77 75 88 83 78 78 77 74 53 39 37 47 62 54 48 44 42 38 34 30 25 21 18 17 15 12 12 13 15 18 23 27 31 34 38 41
81 80 76 74 71 76 81 76 82 81 79 82 83 93 81 79 74 65 46 63 60 58 52 47 44 38 33 30 25 20 18 15 12 10 9 9 13 18 22 26 32 38 43
78 77 77 80 81 79 79 81 81 90 77 95 88 93 92 91 80 70 55 52 68 56 54 54 51 45 40 35 31 25 19 16 14 10 4 5 10 15 20 27 32 38 43
71 73 74 76 78 79 79 84 80 89 80 98 94 89 97 91 84 71 64 55 56 56 65 57 60 54 47 40 34 30 25 19 17 10 4 2 8 15 21 26 31 36 41
59 61 66 71 73 77 78 83 76 83 88 87 85 95 97 85 86 82 60 55 62 57 71 71 60 61 54 47 40 33 28 23 16 11 6 4 8 13 19 24 29 35 40
55 57 60 61 63 64 68 72 79 79 81 83 85 91 90 88 88 85 77 63 65 54 65 66 75 69 60 52 46 37 33 26 18 15 8 6 9 13 20 25 30 34 39
50 54 56 58 62 64 65 72 77 75 79 86 81 87 86 88 88 87 80 75 73 59 65 70 75 66 65 58 49 44 38 28 22 17 12 11 13 17 22 26 31 35 39
49 51 54 58 61 59 63 69 73 72 79 85 77 81 86 85 85 86 79 79 71 68 69 70 80 74 69 61 52 48 42 31 25 19 18 16 16 21 23 28 32 36 38
49 51 55 57 56 57 61 66 73 74 74 76 79 81 81 82 83 80 79 80 68 68 77 68 76 76 69 66 59 54 43 36 30 23 23 23 22 23 25 27 31 34 36
55 57 59 60 60 60 64 66 73 77 74 77 78 75 78 79 82 81 82 72 70 81 76 63 59 57 71 69 63 53 44 39 32 29 28 27 25 26 25 26 30 33 35
64 64 66 66 68 70 70 69 70 75 81 79 79 77 77 76 76 77 76 73 85 89 79 71 62 65 77 73 65 55 46 38 35 34 31 29 28 29 27 25 27 31 36
70 73 75 74 76 77 75 70 74 76 80 85 83 82 81 81 80 71 74 83 84 88 84 69 65 71 69 71 62 52 44 43 39 34 33 31 31 30 26 25 28 30 35
68 74 79 80 83 83 78 75 77 82 84 86 89 88 89 88 88 82 81 80 83 79 61 66 64 64 65 61 56 52 46 46 39 35 37 37 33 30 28 27 31 26 38
70 73 77 80 82 84 81 82 80 87 90 92 93 94 91 91 97 88 85 85 79 66 67 59 68 52 57 54 51 40 46 44 40 37 37 41 38 33 30 33 32 27 42
72 77 79 80 83 85 81 82 89 94 96 98 97 96 93 94 96 94 94 86 82 75 64 64 63 60 57 55 45 53 48 44 39 40 38 40 42 41 40 35 26 41 46
69 72 77 80 82 85 83 83 92 99 104 101 97 97 95 95 94 101 93 89 93 81 72 74 71 65 60 55 56 53 47 43 39 41 39 34 42 46 42 36 39 44 56
Wind_Direction_500mb
185 189 202 201 198 193 185 198 212 167 163 161 168 175 164 166 160 172 156 150 138 110 102 95 91 88 84 82 77 72 68 66 65 62 58 56 52 48 46 42 37 36 34
215 210 203 215 212 211 220 219 221 214 198 186 190 198 190 185 184 188 208 201 160 121 112 106 96 92 86 83 79 73 70 66 63 61 59 55 52 49 44 42 38 35 31
217 222 213 213 216 215 218 230 226 211 216 207 205 201 206 209 208 207 215 207 217 205 134 111 102 94 88 84 81 73 70 65 60 59 59 55 52 49 46 41 38 34 30
225 224 223 223 220 213 234 224 221 212 206 209 206 202 207 211 219 209 202 212 223 227 209 160 125 106 95 86 79 75 70 65 62 60 58 55 52 49 46 42 38 34 30
226 228 229 227 233 225 221 223 218 220 214 205 204 203 203 207 207 208 210 218 218 221 223 230 201 143 110 96 86 79 73 68 66 62 58 56 52 49 46 43 38 35 31
231 230 233 240 241 234 230 225 232 221 216 212 200 197 199 200 202 215 217 222 219 220 217 203 185 195 152 111 94 84 78 73 70 66 62 59 56 51 47 42 39 36 32
234 234 234 238 238 242 233 233 231 224 211 212 201 192 188 197 206 213 221 221 222 220 215 204 193 184 148 152 120 100 87 81 75 71 67 64 59 53 47 43 40 37 32
236 233 235 237 241 242 235 236 232 217 222 217 207 192 189 203 208 212 218 215 215 218 214 205 198 186 168 149 141 129 119 108 94 82 73 68 62 55 49 44 39 35 32
235 238 239 236 243 240 252 246 244 251 236 220 218 209 190 213 208 214 216 217 215 215 211 205 197 187 172 156 147 137 125 109 94 84 76 68 60 55 50 44 38 33 29
238 237 237 244 245 252 235 259 251 250 237 234 223 219 228 233 191 203 214 215 214 211 209 205 197 190 179 169 162 149 131 117 102 90 84 73 60 55 49 43 34 27 23
243 239 240 240 241 251 250 249 254 234 252 241 240 226 227 227 221 212 208 209 209 209 208 205 198 192 185 176 166 162 147 134 125 115 92 73 61 49 38 34 27 20 15
240 241 240 240 246 251 245 256 248 242 245 252 239 234 233 230 230 221 213 207 209 211 206 204 199 196 190 183 177 176 169 155 159 142 104 69 49 33 25 21 16 12 7
244 245 249 247 248 248 250 250 246 250 243 250 242 240 239 237 239 231 221 208 202 208 207 206 202 197 193 190 186 184 179 186 181 164 121 45 24 15 11 11 7 3 1
252 253 250 250 251 251 250 251 250 247 255 246 244 247 244 240 235 235 233 217 195 204 211 210 205 199 197 195 193 193 194 200 197 183 188 6 355 0 3 2 357 356 356
251 251 250 250 249 248 249 248 247 250 252 248 248 250 246 243 238 235 232 225 226 210 216 214 208 205 200 199 200 199 203 206 204 208 224 306 345 349 348 349 351 352 353
253 255 256 255 250 244 245 246 247 248 249 249 250 249 244 240 237 231 228 220 235 228 224 217 218 207 202 201 202 204 210 210 213 220 232 280 321 330 337 340 343 348 349
257 258 259 257 253 255 246 246 248 248 252 252 248 248 245 241 235 231 225 224 234 226 233 230 214 206 204 205 203 208 214 213 220 224 235 273 306 322 325 331 337 342 343
259 259 256 257 257 253 250 246 249 252 251 250 250 249 247 241 235 233 230 229 222 219 229 234 211 206 205 206 206 213 216 219 225 227 243 268 300 313 314 326 333 335 338
264 259 259 261 260 257 251 253 255 255 255 253 254 250 245 238 233 229 227 224 218 219 224 223 208 207 210 207 210 215 217 222 226 234 248 268 287 305 309 320 325 329 333
272 268 266 264 259 256 252 256 254 251 253 253 253 249 246 240 237 232 230 225 219 217 212 208 209 225 217 211 213 215 218 223 230 239 248 264 287 298 301 314 320 328 329
283 278 273 268 262 258 256 258 257 256 254 252 250 248 243 240 237 238 239 221 220 209 211 212 222 223 213 213 214 217 220 222 232 241 251 264 283 292 293 308 320 327 327
290 285 279 273 269 263 260 260 260 258 256 253 250 247 241 236 231 235 231 228 217 210 209 217 225 219 220 215 215 217 219 228 237 248 252 264 278 287 292 308 318 321 326
290 287 283 279 274 269 264 260 262 258 255 253 251 248 242 236 226 228 229 219 213 209 228 236 227 218 223 217 216 219 230 239 248 259 268 275 280 285 293 307 310 314 329
288 287 284 280 276 272 266 260 259 259 256 254 251 247 242 235 225 224 215 206 206 216 227 232 220 224 221 219 219 231 237 244 254 262 270 277 282 287 293 303 305 316 331
289 288 286 283 278 275 271 264 259 256 255 253 249 246 240 234 225 216 208 208 214 226 229 216 214 217 218 217 230 239 238 247 256 264 269 277 285 292 298 306 302 324 328
291 288 285 283 280 276 272 267 262 257 254 251 245 243 241 233 224 211 208 215 225 227 239 215 214 220 221 224 234 236 240 248 255 268 273 273 285 299 307 303 310 320 323
Wind_Speed_850mb
25 22 19 19 19 15 10 5 8 8 13 16 16 16 21 21 22 25 40 32 25 32 30 30 32 32 30 32 32 33 33 35 36 36 37 39 40 40 41 41 43 44 46
26 30 32 28 26 19 15 11 9 8 11 18 19 18 21 23 22 27 23 28 25 27 30 27 27 29 30 31 33 32 33 32 34 35 37 37 38 39 38 40 42 44 45
36 35 37 35 30 26 21 20 19 21 17 21 25 24 23 23 25 29 28 24 19 14 24 27 26 26 28 28 31 29 30 30 31 33 35 35 35 36 38 39 41 43 44
43 42 43 40 39 35 34 32 29 30 30 32 30 29 28 28 27 28 30 27 24 19 17 22 28 27 27 27 29 28 29 29 30 31 32 33 35 37 38 39 40 41 44
53 49 50 47 48 46 43 36 37 36 36 35 35 34 35 33 31 31 30 28 25 20 12 5 9 22 27 26 27 27 26 26 28 30 31 34 35 36 37 38 40 42 43
58 59 56 52 49 52 48 40 42 43 40 40 37 39 37 35 34 34 32 33 29 23 18 13 10 9 18 24 24 23 23 24 27 28 30 32 33 34 36 38 40 41 42
61 65 66 57 60 50 56 54 53 52 50 48 49 42 35 36 36 37 35 31 27 25 24 21 17 12 6 6 18 22 22 23 23 24 26 28 31 33 35 37 38 40 43
60 68 65 68 64 62 60 67 61 62 61 59 56 48 33 33 41 38 38 32 31 29 27 24 21 16 13 10 13 18 19 19 19 20 23 26 29 31 34 36 37 39 42
64 66 63 66 75 66 63 69 74 61 68 66 63 39 23 26 47 44 42 38 35 34 31 29 26 22 20 18 16 19 18 17 19 20 23 23 26 29 31 34 36 38 41
72 70 70 63 73 63 77 72 65 79 72 72 72 73 55 34 36 33 51 47 42 38 36 36 32 28 25 23 19 17 18 18 17 17 17 19 22 26 29 32 35 37 40
75 75 74 71 73 69 80 77 75 88 83 78 78 77 74 53 39 37 47 62 54 48 44 42 38 34 30 25 21 18 17 15 12 12 13 15 18 23 27 31 34 38 41
81 80 76 74 71 76 81 76 82 81 79 82 83 93 81 79 74 65 46 63 60 58 52 47 44 38 33 30 25 20 18 15 12 10 9 9 13 18 22 26 32 38 43
78 77 77 80 81 79 79 81 81 90 77 95 88 93 92 91 80 70 55 52 68 56 54 54 51 45 40 35 31 25 19 16 14 10 4 5 10 15 20 27 32 38 43
71 73 74 76 78 79 79 84 80 89 80 98 94 89 97 91 84 71 64 55 56 56 65 57 60 54 47 40 34 30 25 19 17 10 4 2 8 15 21 26 31 36 41
59 61 66 71 73 77 78 83 76 83 88 87 85 95 97 85 86 82 60 55 62 57 71 71 60 61 54 47 40 33 28 23 16 11 6 4 8 13 19 24 29 35 40
55 57 60 61 63 64 68 72 79 79 81 83 85 91 90 88 88 85 77 63 65 54 65 66 75 69 60 52 46 37 33 26 18 15 8 6 9 13 20 25 30 34 39
50 54 56 58 62 64 65 72 77 75 79 86 81 87 86 88 88 87 80 75 73 59 65 70 75 66 65 58 49 44 38 28 22 17 12 11 13 17 22 26 31 35 39
49 51 54 58 61 59 63 69 73 72 79 85 77 81 86 85 85 86 79 79 71 68 69 70 80 74 69 61 52 48 42 31 25 19 18 16 16 21 23 28 32 36 38
49 51 55 57 56 57 61 66 73 74 74 76 79 81 81 82 83 80 79 80 68 68 77 68 76 76 69 66 59 54 43 36 30 23 23 23 22 23 25 27 31 34 36
55 57 59 60 60 60 64 66 73 77 74 77 78 75 78 79 82 81 82 72 70 81 76 63 59 57 71 69 63 53 44 39 32 29 28 27 25 26 25 26 30 33 35
64 64 66 66 68 70 70 69 70 75 81 79 79 77 77 76 76 77 76 73 85 89 79 71 62 65 77 73 65 55 46 38 35 34 31 29 28 29 27 25 27 31 36
70 73 75 74 76 77 75 70 74 76 80 85 83 82 81 81 80 71 74 83 84 88 84 69 65 71 69 71 62 52 44 43 39 34 33 31 31 30 26 25 28 30 35
68 74 79 80 83 83 78 75 77 82 84 86 89 88 89 88 88 82 81 80 83 79 61 66 64 64 65 61 56 52 46 46 39 35 37 37 33 30 28 27 31 26 38
70 73 77 80 82 84 81 82 80 87 90 92 93 94 91 91 97 88 85 85 79 66 67 59 68 52 57 54 51 40 46 44 40 37 37 41 38 33 30 33 32 27 42
72 77 79 80 83 85 81 82 89 94 96 98 97 96 93 94 96 94 94 86 82 75 64 64 63 60 57 55 45 53 48 44 39 40 38 40 42 41 40 35 26 41 46
69 72 77 80 82 85 83 83 92 99 104 101 97 97 95 95 94 101 93 89 93 81 72 74 71 65 60 55 56 53 47 43 39 41 39 34 42 46 42 36 39 44 56
Wind_Direction_850mb
185 189 202 201 198 193 185 198 212 167 163 161 168 175 164 166 160 172 156 150 138 110 102 95 91 88 84 82 77 72 68 66 65 62 58 56 52 48 46 42 37 36 34
215 210 203 215 212 211 220 219 221 214 198 186 190 198 190 185 184 188 208 201 160 121 112 106 96 92 86 83 79 73 70 66 63 61 59 55 52 49 44 42 38 35 31
217 222 213 213 216 215 218 230 226 211 216 207 205 201 206 209 208 207 215 207 217 205 134 111 102 94 88 84 81 73 70 65 60 59 59 55 52 49 46 41 38 34 30
225 224 223 223 220 213 234 224 221 212 206 209 206 202 207 211 219 209 202 212 223 227 209 160 125 106 95 86 79 75 70 65 62 60 58 55 52 49 46 42 38 34 30
226 228 229 227 233 225 221 223 218 220 214 205 204 203 203 207 207 208 210 218 218 221 223 230 201 143 110 96 86 79 73 68 66 62 58 56 52 49 46 43 38 35 31
231 230 233 240 241 234 230 225 232 221 216 212 200 197 199 200 202 215 217 222 219 220 217 203 185 195 152 111 94 84 78 73 70 66 62 59 56 51 47 42 39 36 32
234 234 234 238 238 242 233 233 231 224 211 212 201 192 188 197 206 213 221 221 222 220 215 204 193 184 148 152 120 100 87 81 75 71 67 64 59 53 47 43 40 37 32
236 233 235 237 241 242 235 236 232 217 222 217 207 192 189 203 208 212 218 215 215 218 214 205 198 186 168 149 141 129 119 108 94 82 73 68 62 55 49 44 39 35 32
235 238 239 236 243 240 252 246 244 251 236 220 218 209 190 213 208 214 216 217 215 215 211 205 197 187 172 156 147 137 125 109 94 84 76 68 60 55 50 44 38 33 29
238 237 237 244 245 252 235 259 251 250 237 234 223 219 228 233 191 203 214 215 214 211 209 205 197 190 179 169 162 149 131 117 102 90 84 73 60 55 49 43 34 27 23
243 239 240 240 241 251 250 249 254 234 252 241 240 226 227 227 221 212 208 209 209 209 208 205 198 192 185 176 166 162 147 134 125 115 92 73 61 49 38 34 27 20 15
240 241 240 240 246 251 245 256 248 242 245 252 239 234 233 230 230 221 213 207 209 211 206 204 199 196 190 183 177 176 169 155 159 142 104 69 49 33 25 21 16 12 7
244 245 249 247 248 248 250 250 246 250 243 250 242 240 239 237 239 231 221 208 202 208 207 206 202 197 193 190 186 184 179 186 181 164 121 45 24 15 11 11 7 3 1
252 253 250 250 251 251 250 251 250 247 255 246 244 247 244 240 235 235 233 217 195 204 211 210 205 199 197 195 193 193 194 200 197 183 188 6 355 0 3 2 357 356 356
251 251 250 250 249 248 249 248 247 250 252 248 248 250 246 243 238 235 232 225 226 210 216 214 208 205 200 199 200 199 203 206 204 208 224 306 345 349 348 349 351 352 353
253 255 256 255 250 244 245 246 247 248 249 249 250 249 244 240 237 231 228 220 235 228 224 217 218 207 202 201 202 204 210 210 213 220 232 280 321 330 337 340 343 348 349
257 258 259 257 253 255 246 246 248 248 252 252 248 248 245 241 235 231 225 224 234 226 233 230 214 206 204 205 203 208 214 213 220 224 235 273 306 322 325 331 337 342 343
259 259 256 257 257 253 250 246 249 252 251 250 250 249 247 241 235 233 230 229 222 219 229 234 211 206 205 206 206 213 216 219 225 227 243 268 300 313 314 326 333 335 338
264 259 259 261 260 257 251 253 255 255 255 253 254 250 245 238 233 229 227 224 218 219 224 223 208 207 210 207 210 215 217 222 226 234 248 268 287 305 309 320 325 329 333
272 268 266 264 259 256 252 256 254 251 253 253 253 249 246 240 237 232 230 225 219 217 212 208 209 225 217 211 213 215 218 223 230 239 248 264 287 298 301 314 320 328 329
283 278 273 268 262 258 256 258 257 256 254 252 250 248 243 240 237 238 239 221 220 209 211 212 222 223 213 213 214 217 220 222 232 241 251 264 283 292 293 308 320 327 327
290 285 279 273 269 263 260 260 260 258 256 253 250 247 241 236 231 235 231 228 217 210 209 217 225 219 220 215 215 217 219 228 237 248 252 264 278 287 292 308 318 321 326
290 287 283 279 274 269 264 260 262 258 255 253 251 248 242 236 226 228 229 219 213 209 228 236 227 218 223 217 216 219 230 239 248 259 268 275 280 285 293 307 310 314 329
288 287 284 280 276 272 266 260 259 259 256 254 251 247 242 235 225 224 215 206 206 216 227 232 220 224 221 219 219 231 237 244 254 262 270 277 282 287 293 303 305 316 331
289 288 286 283 278 275 271 264 259 256 255 253 249 246 240 234 225 216 208 208 214 226 229 216 214 217 218 217 230 239 238 247 256 264 269 277 285 292 298 306 302 324 328
291 288 285 283 280 276 272 267 262 257 254 251 245 243 241 233 224 211 208 215 225 227 239 215 214 220 221 224 234 236 240 248 255 268 273 273 285 299 307 303 310 320 323